Weather History for KRDU - March, 2013

Change the Weather History Date:

Friday, March 1, 2013

  Actual Average Record
Temperature  
Mean Temperature 39 °F 48 °F  
Max Temperature 49 °F 59 °F 82 °F (1997)
Min Temperature 28 °F 36 °F 11 °F (1980)
Degree Days  
Heating Degree Days 26 18  
Month to date heating degree days 26 18  
Since 1 July heating degree days 2472 2590  
Cooling Degree Days 0 0  
Month to date cooling degree days 0 0  
Year to date cooling degree days 2 1  
Moisture  
Dew Point 25 °F    
Average Humidity 64    
Maximum Humidity 85    
Minimum Humidity 42    
Precipitation  
Precipitation 0.00 in 0.13 in 1.38 in (2009)
Month to date precipitation 0.00 0.13  
Year to date precipitation 7.18 6.86  
Snow  
Snow 0.00 in 0.00 in 9.30 in (1969)
Month to date snowfall 0.0 0.0  
Since 1 July snowfall 1.7 5.5  
Snow Depth 0.00 in    
Sea Level Pressure  
Sea Level Pressure 29.87 in    
Wind  
Wind Speed 5 mph (West)    
Max Wind Speed 13 mph    
Max Gust Speed 18 mph    
Visibility 10 miles    
Events      
T = Trace of Precipitation, MM = Missing Value Source: NWS Daily Summary

Daily Weather History Graph

Daily Weather History Graph

Search for Another Location

Airport or City:

Trip Planner

Search our weather history database for the weather conditions in past years. The results will help you decide how hot, cold, wet, or windy it might be!

Date:

Astronomy

Mar. 01, 2013 Rise Set
Actual Time 6:44 AM EST 6:10 PM EST
Civil Twilight 6:19 AM EST 6:36 PM EST
Nautical Twilight 5:49 AM EST 7:05 PM EST
Astronomical Twilight 5:19 AM EST 7:35 PM EST
Moon 10:31 PM EST (3/1) 8:39 AM EST (3/1)
Length of Visible Light 12h 16m
Length of Day
11h 25m
Waning Gibbous, 83% of the Moon is Illuminated
Mar 1
Waning Gibbous
Mar 4
Last Quarter
Mar 11
New
Mar 19
First Quarter
Mar 27
Full

Hourly Weather History & Observations

Time (EST) Temp. Windchill Dew Point Humidity Pressure Visibility Wind Dir Wind Speed Gust Speed Precip Events Conditions
12:51 AM 36.0 °F 33.3 °F 25.0 °F 64% 29.86 in 10.0 mi WNW 3.5 mph - N/A   Partly Cloudy
1:51 AM 34.0 °F 31.0 °F 25.0 °F 70% 29.86 in 10.0 mi West 3.5 mph - N/A   Partly Cloudy
2:51 AM 28.9 °F 22.8 °F 24.1 °F 82% 29.85 in 10.0 mi WSW 5.8 mph - N/A   Partly Cloudy
3:51 AM 30.0 °F 24.1 °F 25.0 °F 82% 29.85 in 10.0 mi WSW 5.8 mph - N/A   Partly Cloudy
4:51 AM 28.9 °F 23.9 °F 25.0 °F 85% 29.87 in 10.0 mi SW 4.6 mph - N/A   Partly Cloudy
5:51 AM 30.0 °F - 25.0 °F 82% 29.87 in 10.0 mi Calm Calm - N/A   Partly Cloudy
6:51 AM 28.0 °F 24.2 °F 25.0 °F 88% 29.88 in 10.0 mi SW 3.5 mph - N/A   Scattered Clouds
7:51 AM 32.0 °F 27.5 °F 27.0 °F 82% 29.89 in 10.0 mi SW 4.6 mph - N/A   Scattered Clouds
8:51 AM 39.9 °F 35.1 °F 28.0 °F 63% 29.88 in 10.0 mi Variable 6.9 mph - N/A   Scattered Clouds
9:51 AM 45.0 °F 39.7 °F 26.1 °F 48% 29.88 in 10.0 mi WNW 10.4 mph - N/A   Scattered Clouds
10:51 AM 46.9 °F - 25.0 °F 42% 29.87 in 10.0 mi Variable 5.8 mph - N/A   Scattered Clouds
11:51 AM 46.9 °F - 25.0 °F 42% 29.88 in 10.0 mi NW 8.1 mph - N/A   Mostly Cloudy
12:51 PM 46.9 °F - 25.0 °F 42% 29.86 in 10.0 mi Variable 6.9 mph - N/A   Overcast
1:51 PM 46.0 °F 41.0 °F 25.0 °F 44% 29.85 in 10.0 mi WNW 10.4 mph 17.3 mph N/A   Overcast
2:51 PM 45.0 °F 40.6 °F 25.0 °F 46% 29.85 in 10.0 mi NW 8.1 mph - N/A   Overcast
3:51 PM 45.0 °F 41.2 °F 26.1 °F 48% 29.85 in 10.0 mi Variable 6.9 mph - N/A   Overcast
4:51 PM 45.0 °F 41.2 °F 26.1 °F 48% 29.86 in 10.0 mi Variable 6.9 mph - N/A   Overcast
5:51 PM 44.1 °F 42.5 °F 26.1 °F 49% 29.87 in 10.0 mi West 3.5 mph - N/A   Overcast
6:51 PM 43.0 °F - 27.0 °F 53% 29.89 in 10.0 mi Calm Calm - N/A   Overcast
7:51 PM 43.0 °F - 27.0 °F 53% 29.91 in 10.0 mi Calm Calm - N/A   Overcast
8:51 PM 43.0 °F - 27.0 °F 53% 29.91 in 10.0 mi Calm Calm - N/A   Overcast
9:51 PM 42.1 °F 40.2 °F 25.0 °F 51% 29.91 in 10.0 mi Variable 3.5 mph - N/A   Overcast
10:51 PM 41.0 °F 38.0 °F 23.0 °F 49% 29.91 in 10.0 mi Variable 4.6 mph - N/A   Mostly Cloudy
11:51 PM 36.0 °F - 24.1 °F 62% 29.91 in 10.0 mi Calm Calm - N/A   Partly Cloudy